Location: White Rock
(32.8754°N, 96.6806°W)
Time: 05:27:04
(UTC+00:00)

Daily predictions for brighter satellites

Satellite Brightness Start Highest point End
(mag) Time Altitude Azimuth Time Altitude Azimuth Time Altitude Azimuth
SJ-6B 3.1 02:01:26 10° S 02:05:00 63° W 02:08:36 10° NNW
Cosmos 2251 Rocket 3.9 02:00:03 10° SSW 02:05:17 71° WNW 02:10:36 10° NNE
Okean O Rocket 2.5 02:01:43 10° SE 02:05:36 32° ENE 02:09:29 10° N
Cosmos 407 Rocket 4.2 02:01:18 10° SSW 02:06:26 60° WNW 02:11:34 10° N
Centaur AC-119 4.1 02:03:44 10° SW 02:07:27 32° SSE 02:16:54 10° E
Lacrosse 5 rocket 3.1 02:04:12 10° WNW 02:07:46 28° WSW 02:11:14 10° S
USA 186 1.9 02:05:17 10° SSE 02:08:33 61° ENE 02:11:51 10° N
Cosmos 1666 Rocket 3.5 02:07:27 10° N 02:11:47 72° E 02:16:08 10° SSE
Cosmos 1842 3.7 02:11:39 10° SSE 02:15:02 37° E 02:18:25 10° NNE
CZ-4B R/B 3.1 02:11:15 10° SSE 02:16:30 74° ENE 02:21:48 10° N
Cosmos 1092 Rocket 4.1 02:13:21 10° S 02:19:41 87° W 02:26:03 10° N
Tiangong -0.4 02:18:50 10° NW 02:21:35 26° NNE 02:24:19 10° ENE
CZ-4 R/B 2.2 02:18:45 10° S 02:22:33 49° W 02:26:27 10° NNW
Cosmos 1954 Rocket 4.0 02:18:28 10° S 02:23:43 72° ESE 02:28:59 10° NNE
SPOT 5 4.3 02:22:14 10° ESE 02:24:59 18° ENE 02:27:53 10° NNE
Cosmos 1066 Rocket 4.5 02:21:26 10° S 02:27:17 79° W 02:33:05 10° N
Cosmos 676 Rocket 4.0 02:30:13 10° S 02:35:30 75° ESE 02:40:49 10° NNE
Resurs 01 Rocket 1.7 02:32:00 10° S 02:36:24 79° WSW 02:40:48 10° NNW
Cosmos 1707 2.6 02:33:18 10° S 02:36:49 56° E 02:40:21 10° NNE
ASTRO E2 2.8 02:36:49 10° SW 02:40:05 38° SSE 02:42:08 19° ESE
Cosmos 2082 Rocket 4.1 02:37:25 10° SW 02:42:33 34° WNW 02:47:43 10° N
PSLV R/B 3.4 02:40:20 13° SSE 02:43:29 87° E 02:47:00 10° N
SL-16 R/B 3.7 02:41:42 10° N 02:46:06 23° ENE 02:49:14 15° E
SJ 16-02 3.4 02:50:25 11° E 02:50:25 11° E 02:50:53 10° ENE
Cosmos 2333 Rocket 4.4 02:49:04 10° NE 02:50:00 10° NE 02:50:56 10° ENE
Cosmos 2369 3.7 02:45:29 10° NNW 02:51:15 89° ENE 02:55:49 16° SSE
ERS-1 Rocket 4.3 02:49:41 17° ESE 02:52:05 25° ENE 02:56:06 10° NNE
Cosmos 1674 3.7 02:49:28 10° SSW 02:52:45 41° W 02:56:03 10° N
SL-27 R/B 4.4 02:59:50 11° ENE 02:59:50 11° ENE 03:00:02 10° NE
Atlas Centaur 2 3.0 02:50:16 10° W 02:58:12 74° S 03:05:10 16° ESE
Terra 3.2 02:56:42 18° E 02:58:26 22° ENE 03:02:03 10° NNE
CZ-4C R/B 3.3 02:54:17 10° NNE 02:58:26 80° E 03:02:29 10° S
MOS 1-B Rocket 4.3 02:52:22 10° S 02:58:44 66° WSW 03:04:27 10° NNW
Cosmos 1763 Rocket 3.4 02:56:08 10° NNW 03:01:21 87° WSW 03:04:58 20° SSE
USA 234 3.5 03:02:32 10° NE 03:09:03 75° NW 03:15:33 10° SW
FALCON 9 R/B 4.2 03:08:49 10° WSW 03:12:47 22° SSW 03:16:38 17° SSE
Cosmos 1400 Rocket 2.6 03:15:07 32° S 03:16:49 72° E 03:20:39 10° NNE
Atlas 2A Centaur Rocket 3.3 03:15:24 10° SW 03:15:54 13° SW 03:15:54 13° SW
IRS-1A Rocket 4.4 03:14:34 28° SE 03:17:19 58° ENE 03:22:43 10° N
ARGOS Delta rocket 3.6 03:15:40 31° SSE 03:17:44 74° ENE 03:22:08 10° N
Cosmos 1417 Rocket 4.5 03:14:08 10° N 03:20:15 65° E 03:23:26 29° SSE
Cosmos 1441 Rocket 2.9 03:16:46 10° N 03:20:23 79° E 03:21:16 49° SSE
ATLAS CENTAUR R/B 1.4 03:18:59 10° SW 03:22:23 59° WNW 03:25:51 10° NNE
Cosmos 1356 Rocket 3.8 03:22:33 40° ESE 03:22:54 41° E 03:26:52 10° NNE
Okean-O 3.0 03:20:32 23° S 03:23:08 59° W 03:27:29 10° NNW
Cosmos 1908 3.0 03:21:25 10° N 03:25:01 80° W 03:25:58 47° S
Cosmos 1980 Rocket 3.7 03:21:09 10° NW 03:26:04 31° WSW 03:30:42 11° SSW
Cosmos 2322 Rocket 3.2 03:23:25 10° N 03:28:27 31° ENE 03:30:11 26° E
SL-08 ROCKET BODY 4.4 03:25:30 19° S 03:30:04 85° E 03:36:10 10° N
Ariane Rocket 3.6 03:29:26 34° ESE 03:30:44 41° ENE 03:35:30 10° N
Meteor 2-10 Rocket 4.1 03:25:44 10° N 03:30:55 43° ENE 03:32:12 37° ESE
Meteor 1-22 Rocket 4.3 03:25:58 10° N 03:31:41 64° E 03:33:59 37° SSE
USA 245 3.2 03:32:06 52° ENE 03:32:06 52° ENE 03:35:57 10° N
Cosmos 468 Rocket 4.2 03:29:04 10° NNW 03:34:12 65° WSW 03:36:33 32° S
Cosmos 2228 Rocket 3.0 03:39:24 53° SSE 03:40:20 71° E 03:44:52 10° N
Cosmos 2278 3.6 03:35:54 10° NNW 03:41:38 88° WSW 03:43:39 42° SSE
Okean O Rocket 4.0 03:38:56 10° SW 03:41:52 17° W 03:44:48 10° NW
Cosmos 1470 4.4 03:39:14 10° NNW 03:42:23 27° W 03:44:06 19° SW
Cosmos 1241 Rocket 4.3 03:40:31 21° SSW 03:44:42 69° ESE 03:50:52 10° NNE
Landsat 4 4.5 03:45:44 36° NE 03:45:44 36° NE 03:48:17 10° N
BlueWalker 3 4.3 03:48:25 13° NE 03:48:25 13° NE 03:48:53 10° NE
Cosmos 1850 Rocket 4.3 03:40:35 12° SSW 03:45:23 65° WNW 03:50:34 10° N
Cosmos 1869 Rocket 3.7 03:41:04 10° NNW 03:45:30 69° W 03:46:42 46° SSW
Meteor 1-21 4.2 03:45:53 42° SSE 03:47:47 69° E 03:53:33 10° NNE
MOS 1 Rocket 3.6 03:47:05 49° SE 03:48:23 66° ENE 03:53:41 10° N
Cosmos 540 Rocket 4.5 03:43:49 10° NNW 03:48:35 40° W 03:50:55 25° SSW
ATLAS 2AS CENTAUR R/B 3.7 03:45:22 10° NNW 03:51:23 33° NE 03:53:49 26° E
Cosmos 2219 Rocket 3.9 03:48:30 10° NNE 03:52:31 19° ENE 03:53:40 18° ENE
Cosmos 968 Rocket 3.5 03:55:15 32° SSW 03:57:37 75° WNW 04:02:47 10° NNE
S3M 4.1 03:51:29 10° N 03:57:49 74° W 04:00:27 37° S
Tiangong -0.3 03:55:24 10° WNW 03:57:06 28° W 03:57:06 28° W
SeaSat 1 2.3 03:57:51 63° SE 03:58:33 77° ENE 04:03:27 10° NNW
Cosmos 2237 4.3 03:53:06 10° NNW 03:58:48 71° WSW 04:00:22 48° S
SL-14 R/B 3.7 03:59:59 51° W 04:00:13 52° W 04:03:56 10° N
Spot 1 4.2 03:56:16 10° NNE 04:00:56 72° ESE 04:01:09 71° SE
SPOT 3 Rocket 3.4 04:00:42 64° SE 04:01:27 78° ENE 04:06:37 10° N
SPOT 5 4.1 04:01:22 25° SW 04:02:45 30° W 04:06:34 10° NW
Cosmos 1655 Rocket 4.3 04:02:48 27° SSW 04:06:27 65° W 04:12:49 10° N
Landsat 5 3.7 04:05:30 10° NNE 04:08:59 64° NNE 04:08:59 64° NNE
Okean 3 3.7 04:10:42 63° N 04:10:42 63° N 04:14:15 10° N
Cosmos 1862 Rocket 3.6 04:10:50 68° W 04:10:57 69° W 04:15:21 10° N
Cosmos 1346 Rocket 3.5 04:08:14 10° N 04:11:07 48° N 04:11:07 48° N
Cosmos 2360 Rocket 2.2 04:12:28 10° NNW 04:18:07 66° ENE 04:18:30 64° E
Cosmos 1244 Rocket 4.3 04:21:10 65° SSE 04:21:59 74° E 04:28:16 10° N
Nadezhda 2 Rocket 4.4 04:23:37 65° SE 04:24:29 74° E 04:30:54 10° N
COSMOS 2455 4.0 04:27:48 29° ENE 04:27:48 29° ENE 04:31:19 10° NE
RESURS DK-1 3.3 04:21:57 10° NNW 04:25:03 44° WNW 04:25:03 44° WNW
SJ 16-02 2.2 04:27:07 43° W 04:27:23 43° WNW 04:31:31 10° N
SL-16 R/B 2.9 04:25:00 10° NW 04:30:17 42° WSW 04:31:06 39° SW
ERS-1 Rocket 4.3 04:29:36 28° WSW 04:30:38 30° W 04:35:02 10° NW
Cosmos 2333 Rocket 2.1 04:29:19 10° NNW 04:35:05 84° ENE 04:35:10 84° E
Terra 3.2 04:35:24 29° WSW 04:35:49 29° W 04:39:54 10° NW
CZ-3 Stage 3 4.3 03:47:28 10° W 04:38:02 81° S 04:43:32 36° ESE
Atlas Centaur 2 3.2 04:39:31 10° W 04:47:22 52° SSW 04:47:22 52° SSW
SL-08 R/B 4.3 04:48:33 81° SW 04:48:49 84° W 04:54:56 10° N
ARIANE 5 R/B 4.2 04:53:07 28° NNE 04:53:07 28° NNE 04:55:31 10° N
Okean 1-7 4.4 04:56:18 36° NW 04:56:18 36° NW 04:59:27 10° N
CZ-4C R/B 3.6 04:58:36 22° NE 04:58:36 22° NE 05:00:27 10° NE
Meteor 1-16 Rocket 4.5 04:51:49 10° NNW 04:57:40 66° W 04:57:40 66° W
Cosmos 2333 4.4 04:57:51 10° NNW 05:03:03 66° WNW 05:03:03 66° WNW
Cosmos 2297 Rocket 3.4 05:14:18 32° NE 05:14:18 32° NE 05:17:29 10° NNE
Cosmos 2322 Rocket 3.6 05:07:29 10° NW 05:11:59 29° W 05:11:59 29° W
Cosmos 1745 Rocket 4.3 05:33:30 60° WNW 05:33:30 60° WNW 05:39:34 10° N
Meteor 2-5 Rocket 4.5 05:36:02 49° NE 05:36:02 49° NE 05:40:23 10° NNE
Cosmos 2219 Rocket 3.1 05:31:13 10° NNW 05:35:22 42° WNW 05:35:22 42° WNW
COSMOS 2428 3.3 05:34:22 10° NNW 05:38:48 53° N 05:38:48 53° N
USA 281 3.2 05:41:51 77° NW 05:41:51 77° NW 05:47:56 10° NNW
ATLAS 2AS CENTAUR R/B 3.5 05:36:08 10° NW 05:41:14 37° W 05:41:14 37° W
Nadezhda 1 Rocket 4.5 05:43:37 10° NNW 05:48:56 53° WNW 05:48:56 53° WNW
SL-12 R/B(2) 4.1 06:07:20 68° E 06:07:20 68° E 06:15:42 10° NE
COSMOS 2455 4.3 06:10:52 29° WNW 06:11:45 30° WNW 06:16:58 10° N
SL-16 R/B 4.1 06:27:03 10° NNE 06:31:14 21° ENE 06:32:00 20° ENE
CENTAUR R/B 3.0 06:33:07 51° N 06:33:07 51° N 06:38:01 10° NNE
Cosmos 2227 Rocket 3.1 06:37:22 46° NNW 06:37:22 46° NNW 06:41:34 10° NNE
Cosmos 2237 Rocket 3.1 06:32:16 10° NNW 06:36:08 45° NNW 06:36:08 45° NNW
CZ-4C R/B 4.4 06:43:37 12° NW 06:44:45 13° NW 06:47:10 10° NNW
Cosmos 2184 Rocket 4.4 06:49:15 60° NNW 06:49:15 60° NNW 06:54:35 10° N
Cosmos 2297 Rocket 4.1 06:56:04 20° WNW 06:56:20 20° WNW 07:00:23 10° NNW
Cosmos 2219 3.9 07:01:34 49° N 07:01:34 49° N 07:05:42 10° NNE
H-2A R/B 4.4 07:01:36 10° N 07:03:04 19° NNW 07:03:04 19° NNW
Cosmos 2154 Rocket 4.4 07:06:21 55° NW 07:06:21 55° NW 07:11:33 10° N
NOSS 3-2 (A) 4.1 07:21:44 41° NNW 07:21:44 41° NNW 07:26:16 10° NNE
SL-8 Rocket 4.3 07:21:49 56° ENE 07:21:49 56° ENE 07:27:20 10° NNE
Resurs 1-4 Rocket 4.0 07:18:51 10° NE 07:22:10 20° E 07:22:10 20° E
NOSS 3-2 (C) 3.8 07:28:54 49° NE 07:28:54 49° NE 07:33:03 10° NNE
Cosmos 2263 Rocket 2.8 07:28:45 49° NNW 07:28:45 49° NNW 07:33:08 10° NNE
USA 267 4.5 07:34:38 10° ENE 07:39:25 27° ESE 07:39:25 27° ESE
Cosmos 1844 Rocket 3.8 07:47:26 33° E 07:47:26 33° E 07:51:59 10° NE
Cosmos 2341 Rocket 4.1 07:56:13 64° WNW 07:56:13 64° WNW 08:02:01 10° N
COBE Rocket 4.3 07:54:32 10° N 07:58:51 63° N 07:58:51 63° N
Cosmos 864 Rocket 4.4 08:02:24 74° W 08:02:24 74° W 08:08:41 10° N
IDEFIX/ARIANE 42P 2.6 08:03:53 10° NNE 08:08:40 74° NE 08:08:40 74° NE
SL-16 R/B 3.1 08:10:07 10° NNW 08:13:49 36° WNW 08:13:49 36° WNW
MOZ.5/SAFIR/RUBIN 5/SL-8 4.4 08:17:56 50° NNW 08:17:56 50° NNW 08:21:23 10° NNW
CZ-2C R/B 3.3 08:13:44 10° NNE 08:18:55 57° E 08:19:01 57° ESE
CZ-2C R/B 3.2 08:17:59 44° ESE 08:19:08 52° ENE 08:24:19 10° N
Cosmos 1821 Rocket 3.7 08:25:03 74° SSW 08:25:40 86° W 08:31:49 10° N
CZ-2D R/B 1.9 08:21:28 10° NNE 08:26:48 85° ESE 08:26:55 83° SE
MSX 3.6 08:22:02 10° N 08:27:46 78° WNW 08:28:10 74° WSW
Cosmos 1943 3.5 08:23:42 10° NNW 08:29:16 63° ENE 08:31:17 38° SE
Cosmos 1867 3.6 08:30:15 65° WNW 08:30:22 65° WNW 08:35:49 10° NNE
Cosmos 2218 Rocket 4.5 08:30:27 43° W 08:30:35 43° W 08:36:27 10° N
Cosmos 2228 3.8 08:26:56 10° N 08:30:02 46° NNW 08:30:02 46° NNW
FENGYUN 3A 3.9 08:28:09 10° NNE 08:33:30 61° ESE 08:34:20 54° SE
USA 238 DEB 3.5 08:32:42 56° W 08:33:37 63° WNW 08:40:04 10° NNE
USA 238 3.5 08:32:45 57° W 08:33:40 64° WNW 08:40:08 10° NNE
AQUA 4.1 08:35:51 10° NNE 08:40:29 55° E 08:40:58 53° SE
ADEOS II 2.0 08:41:19 10° NNE 08:46:34 85° E 08:47:23 65° S
NPP 4.1 08:41:48 10° N 08:46:52 43° WNW 08:47:11 43° W
ALOS 3.0 08:42:31 10° NNE 08:46:56 44° E 08:47:51 39° SE
ATLAS 5 CENTAUR R/B 3.0 08:56:45 18° ESE 08:56:45 18° ESE 08:58:51 10° ENE
Resurs 1-4 Rocket 2.7 08:57:40 10° N 09:02:33 39° WNW 09:03:13 38° W
Cosmos 1934 Rocket 4.1 08:59:41 35° S 09:02:33 77° E 09:08:55 10° N
Cosmos 1844 3.9 09:01:40 47° WSW 09:02:55 57° WNW 09:08:38 10° NNE
SL-16 R/B 2.9 08:59:19 11° SSE 09:05:14 65° ENE 09:11:25 10° N
Cosmos 921 Rocket 3.1 09:01:28 10° N 09:05:38 67° ENE 09:06:56 41° SE
NOSS 2-2 (C) 3.9 09:07:47 37° ESE 09:07:47 37° ESE 09:10:43 10° NE
Cosmos 2123 Rocket 4.3 09:02:56 10° N 09:09:03 63° E 09:14:25 14° SSE
IRAS Rocket 4.5 09:04:10 10° NNE 09:09:36 64° ESE 09:12:12 31° S
Cosmos 1606 Rocket 3.4 09:06:03 10° N 09:10:29 83° W 09:11:20 58° S
Meteor 1-28 Rocket 3.1 09:10:16 64° ESE 09:10:35 70° ENE 09:14:07 10° N
Cosmos 2058 3.3 09:10:10 41° SE 09:11:12 56° E 09:15:11 10° NNE
NOSS 2-2 (D) 4.5 09:16:44 26° SE 09:17:23 28° ESE 09:20:15 10° NE
Cosmos 2298 Rocket 4.5 09:16:16 28° S 09:18:54 57° ESE 09:24:06 10° NNE
USA 267 3.4 09:16:48 10° NE 09:23:15 64° NW 09:26:45 29° WSW
NOSS 2-3 (E) 4.2 09:22:56 31° SSE 09:23:53 37° ESE 09:27:17 10° NE
Cosmos 1726 Rocket 3.4 09:21:07 10° N 09:25:32 76° W 09:27:08 38° S
Cosmos 1238 Rocket 4.0 09:25:25 10° NNE 09:28:13 29° E 09:30:15 14° SE
NOSS 2-3 (C) 3.9 09:28:26 33° SSE 09:29:29 44° ESE 09:32:58 10° NE
Cosmos 1844 Rocket 3.9 09:29:05 23° W 09:30:51 27° WNW 09:35:31 10° N
METEOR-M 4.4 09:27:16 10° NNE 09:32:35 64° ESE 09:36:24 19° S
Delta 2 Rocket 3.2 09:33:16 25° WNW 09:35:32 86° NNE 09:39:51 10° ESE
SAR-Lupe-1 4.2 09:35:18 10° N 09:38:47 55° WNW 09:39:33 44° WSW
SEDSat Delta rocket 2.6 09:39:27 35° WSW 09:41:02 73° S 09:45:03 10° E
H-2A R/B 4.5 09:39:21 10° NE 09:42:57 19° E 09:46:29 10° SE
Alouette 2 Rocket 4.3 09:41:56 30° SW 09:43:36 39° W 09:47:22 10° N
ASTEX 1 4.0 09:43:47 29° SW 09:45:10 35° W 09:49:38 10° NNW
IRS-1D 4.4 09:42:58 10° NNE 09:47:52 45° E 09:52:38 10° S
BREEZE-M DEB (TANK) 3.1 09:45:34 10° WNW 09:48:29 49° SW 09:57:28 10° SSE
Lacrosse 5 3.6 09:50:58 10° S 09:54:58 24° ESE 09:59:00 10° ENE
CZ-2C R/B 2.4 09:50:36 10° NNE 09:55:09 70° ESE 09:59:19 13° S
Cosmos 1544 2.9 09:55:25 35° W 09:55:25 35° W 09:57:49 10° NNW
Cosmos 2278 Rocket 3.7 09:50:51 10° SSE 09:55:50 33° ESE 10:00:49 10° NE
Envisat 3.0 09:52:02 10° N 09:57:05 69° WNW 10:00:49 18° SSW
Cosmos 1271 Rocket 3.7 09:55:33 10° SSE 09:58:55 41° E 10:02:18 10° NNE
CZ-2C R/B 4.3 09:59:28 15° W 09:59:39 15° W 10:02:33 10° WNW
Cosmos 1048 Rocket 4.3 09:55:09 10° NNW 10:00:08 45° WSW 10:05:08 10° S
UNK 3.9 09:58:30 13° S 10:02:32 52° W 10:07:01 10° NNW
Cosmos 1862 4.3 10:00:12 10° SSE 10:03:48 43° E 10:07:25 10° NNE
Mugunghwa Rocket 4.2 09:59:07 17° WSW 10:04:00 49° S 10:10:03 10° ESE
Cosmos 1758 Rocket 3.6 10:00:54 11° S 10:05:12 80° E 10:09:37 10° N
Cosmos 2058 Rocket 3.3 10:02:20 10° NNW 10:06:35 49° W 10:10:19 13° SSW
Cosmos 1153 Rocket 4.4 10:05:02 10° S 10:11:11 87° W 10:17:20 10° N
YAOGAN 6 2.2 10:11:03 10° N 10:14:13 70° WNW 10:16:44 15° SSW
Cosmos 1812 4.0 10:15:50 10° NW 10:18:31 20° W 10:19:50 17° WSW
Cosmos 1607 4.1 10:13:11 10° NW 10:19:18 52° WSW 10:25:17 10° S
USA 276 3.1 10:17:32 15° SSW 10:19:36 34° SE 10:22:16 10° ENE
NOSS 2-2 (E) 3.9 10:21:14 16° WSW 10:23:34 32° WNW 10:26:28 10° N
ALOS 4.2 10:21:12 10° NW 10:23:41 15° WNW 10:26:09 10° W
Iridium 4 Rocket 4.2 10:20:18 10° NNW 10:24:24 32° W 10:28:47 10° SSW
Cosmos 1626 Rocket 4.3 10:22:56 13° SW 10:26:21 35° W 10:30:24 10° NNW
Cosmos 1515 3.5 10:23:56 10° N 10:27:25 84° E 10:30:53 10° S
Cosmos 1378 3.6 10:24:34 10° N 10:27:46 52° E 10:30:57 10° SSE
PAYLOAD A 4.2 10:23:53 10° N 10:29:05 61° WNW 10:34:22 10° SSW
Aurora 2 Rocket 4.3 10:27:02 12° SW 10:31:19 33° SSE 10:37:38 10° ESE
Cosmos 1782 2.9 10:34:27 10° NNW 10:38:11 51° W 10:41:53 10° S
DMSP B5D2-2 4.1 10:34:04 10° S 10:39:17 70° WSW 10:44:33 10° NNW
Cosmos 2346 Rocket 4.4 10:33:55 10° N 10:39:57 77° W 10:45:59 10° S
ATLAS 5 CENTAUR R/B 2.9 10:37:57 10° W 10:40:05 16° NW 10:42:17 10° N
Cosmos 1833 Rocket 3.1 10:43:22 10° NNW 10:49:01 71° ENE 10:54:37 10° SSE
SL-16 R/B 4.0 10:45:32 10° SW 10:49:09 16° W 10:52:47 10° WNW
Meteor 1-26 Rocket 4.2 10:46:54 10° N 10:52:18 87° E 10:57:41 10° S
